Weather History for Shreveport, LA

Change the Weather History Date:

Monday, May 12, 2014

  Actual Average Record
Temperature  
Mean Temperature 79 °F 72 °F  
Max Temperature 89 °F 83 °F 96 °F (1886)
Min Temperature 68 °F 62 °F 42 °F (1960)
Degree Days  
Heating Degree Days 0 0  
Month to date heating degree days 9 5  
Since 1 July heating degree days 2552 2224  
Cooling Degree Days 14 8  
Month to date cooling degree days 93 76  
Year to date cooling degree days 214 211  
Growing Degree Days 31 (Base 50)    
Moisture  
Dew Point 69 °F    
Average Humidity 75    
Maximum Humidity 93    
Minimum Humidity 57    
Precipitation  
Precipitation 0.67 in 0.15 in 3.91 in (1990)
Month to date precipitation 2.99 1.95  
Year to date precipitation 14.54 19.23  
Snow  
Snow 0.00 in - - ()
Month to date snowfall 0.0  
Since 1 July snowfall 1.0  
Snow Depth 0.00 in    
Sea Level Pressure  
Sea Level Pressure 29.90 in    
Wind  
Wind Speed 13 mph (SSE)    
Max Wind Speed 30 mph    
Max Gust Speed 37 mph    
Visibility 9 miles    
Events Rain , Thunderstorm    
T = Trace of Precipitation, MM = Missing Value Source: NWS Daily Summary

Daily Weather History Graph

Daily Weather History Graph

Search for Another Location

Airport:

Trip Planner

Search our weather history database for the weather conditions in past years. The results will help you decide how hot, cold, wet, or windy it might be!

Date:

Astronomy

May. 12, 2014 Rise Set
Actual Time 6:19 AM CDT 8:04 PM CDT
Civil Twilight 5:52 AM CDT 8:31 PM CDT
Nautical Twilight 5:20 AM CDT 9:03 PM CDT
Astronomical Twilight 4:45 AM CDT 9:38 PM CDT
Moon 6:09 PM CDT (5/12) 4:50 AM CDT (5/12)
Length of Visible Light 14h 39m
Length of Day
13h 45m
Waxing Gibbous, 95% of the Moon is Illuminated
May 12
Waxing Gibbous
May 14
Full
May 21
Last Quarter
May 28
New
Jun 5
First Quarter

Hourly Weather History & Observations

Time (CDT) Temp. Heat Index Dew Point Humidity Pressure Visibility Wind Dir Wind Speed Gust Speed Precip Events Conditions
12:56 AM 75.0 °F - 70.0 °F 84% 29.83 in 10.0 mi SE 11.5 mph - N/A   Overcast
1:31 AM 75.2 °F - 69.8 °F 83% 29.84 in 10.0 mi SE 10.4 mph - N/A   Overcast
1:40 AM 75.2 °F - 69.8 °F 83% 29.84 in 10.0 mi SSE 10.4 mph - N/A   Overcast
1:56 AM 75.9 °F - 71.1 °F 85% 29.83 in 10.0 mi SSE 10.4 mph - N/A   Overcast
2:56 AM 77.0 °F - 71.1 °F 82% 29.83 in 10.0 mi SSE 11.5 mph - N/A   Overcast
3:56 AM 75.9 °F - 71.1 °F 85% 29.83 in 10.0 mi SSE 9.2 mph - 0.00 in Rain Light Rain
4:56 AM 75.0 °F - 72.0 °F 90% 29.86 in 3.0 mi SE 5.8 mph - 0.01 in Rain Heavy Rain
5:56 AM 73.9 °F - 72.0 °F 93% 29.88 in 7.0 mi SE 8.1 mph - 0.07 in   Overcast
6:56 AM 73.9 °F - 72.0 °F 93% 29.91 in 7.0 mi SE 6.9 mph - N/A   Overcast
7:33 AM 75.2 °F - 71.6 °F 89% 29.93 in 7.0 mi SE 9.2 mph - N/A   Overcast
7:56 AM 75.0 °F - 72.0 °F 90% 29.92 in 8.0 mi SSE 13.8 mph - N/A   Mostly Cloudy
8:56 AM 78.8 °F - 71.6 °F 78% 29.94 in 10.0 mi SSE 15.0 mph - N/A   Scattered Clouds
9:12 AM 78.8 °F - 71.6 °F 78% 29.94 in 10.0 mi SSE 13.8 mph 21.9 mph N/A   Mostly Cloudy
9:56 AM 80.1 °F 83.8 °F 72.0 °F 76% 29.94 in 10.0 mi SSE 13.8 mph 24.2 mph N/A   Mostly Cloudy
10:56 AM 84.0 °F 89.6 °F 72.0 °F 67% 29.96 in 10.0 mi South 12.7 mph - N/A   Mostly Cloudy
11:56 AM 84.0 °F 89.0 °F 71.1 °F 65% 29.97 in 10.0 mi South 13.8 mph 23.0 mph N/A   Mostly Cloudy
12:56 PM 87.1 °F 92.8 °F 71.1 °F 59% 29.95 in 10.0 mi South 16.1 mph 21.9 mph N/A   Mostly Cloudy
1:56 PM 84.0 °F 88.4 °F 70.0 °F 63% 29.94 in 10.0 mi South 8.1 mph - N/A   Mostly Cloudy
2:56 PM 86.0 °F 90.7 °F 70.0 °F 59% 29.89 in 10.0 mi South 12.7 mph 25.3 mph N/A   Mostly Cloudy
3:56 PM 88.0 °F 93.8 °F 71.1 °F 57% 29.84 in 10.0 mi SSE 18.4 mph 25.3 mph N/A   Mostly Cloudy
4:56 PM 82.9 °F 86.5 °F 69.1 °F 63% 29.86 in 10.0 mi SSE 24.2 mph 32.2 mph N/A   Mostly Cloudy
5:56 PM 80.1 °F 83.8 °F 72.0 °F 76% 29.86 in 10.0 mi SSE 21.9 mph 31.1 mph N/A   Overcast
6:56 PM 78.1 °F - 69.1 °F 74% 29.85 in 10.0 mi SSE 20.7 mph 28.8 mph N/A   Overcast
7:56 PM 75.0 °F - 64.0 °F 69% 29.86 in 10.0 mi South 15.0 mph - N/A   Overcast
8:56 PM 73.9 °F - 62.1 °F 66% 29.89 in 10.0 mi SSW 8.1 mph - N/A   Overcast
9:56 PM 73.9 °F - 63.0 °F 68% 29.96 in 10.0 mi WNW 12.7 mph - N/A   Overcast
10:03 PM 73.4 °F - 64.4 °F 73% 29.96 in 10.0 mi NW 12.7 mph - N/A   Overcast
10:19 PM 73.4 °F - 64.4 °F 73% 29.97 in 10.0 mi WNW 8.1 mph - N/A Thunderstorm Thunderstorm
10:56 PM 73.0 °F - 64.9 °F 76% 29.96 in 10.0 mi NNW 9.2 mph - 0.00 in Rain , Thunderstorm Light Thunderstorms and Rain
11:03 PM 73.4 °F - 64.4 °F 73% 29.97 in 10.0 mi North 9.2 mph - 0.00 in Rain , Thunderstorm Light Thunderstorms and Rain
11:56 PM 69.1 °F - 64.9 °F 87% 29.96 in 6.0 mi North 11.5 mph - 0.03 in Rain , Thunderstorm Thunderstorms and Rain